    Orbital elements:
        P/2001 Q6 (NEAT)
    Epoch 2001 Nov. 27.0 TT = JDT 2452240.5
    T 2001 Nov.  9.46706 TT                                 MPC
    q   1.4081735            (2000.0)            P               Q
    n   0.04361319     Peri.   43.33018     +0.53242764     -0.78548649
    a   7.9932640      Node    22.13540     +0.34178713     -0.14148065
    e   0.8238300      Incl.   56.85465     +0.77440452     +0.60249000
    P  22.60
    Residuals in seconds of arc
    010828 644  0.1-  0.1-    010925 704 (5.5-  1.5-)   011023 349  0.0   0.2+
    010828 644  0.0   0.3+    010925 704 (2.2-  1.6-)   011023 349  0.1-  0.2+
    010828 644  0.3+  0.3+    010925 704  1.6-  1.6-    011023 970  0.1+  0.1-
    010828 046  0.8+  0.4+    010925 704  1.6-  0.4+    011023 970  0.5+  0.6-
    010828 046  0.6-  0.5+    010928 349  0.1-  0.2+    011023 970  0.5+  0.3-
    010828 046  0.4+  0.3+    010928 349  0.0   0.3-    011023 970  0.0   0.2+
    010828 046  0.7+  0.3+    010928 349  0.2+  0.2-    011023 970  0.5+  0.4-
    010828 046  0.5+  0.7+    010928 360  0.4+  0.0     011023 970  0.2+  0.2+
    010829 557  0.1-  0.0     010928 360  0.4+  0.2-    011025 235 (6.5-  4.7+)
    010829 557  0.2-  0.2+    010929 046  0.5+  0.1-    011026 402  0.0   0.2+
    010829 557  0.1-  0.3+    010929 046  0.5+  0.1-    011026 402  0.1-  0.3+
    010829 557  0.5-  0.0     010929 046  0.6+  0.2-    011026 402  0.1+  0.0
    010829 599  0.2-  1.1+    010929 046  0.3+  0.0     011026 349  0.2-  0.6-
    010829 599  0.1-  0.5+    011002 349  0.4+  0.4-    011026 349  0.2-  0.3-
    010829 599  0.3-  0.1-    011002 349  0.3+  0.2-    011026 349  0.0   0.4-
    010829 636 (4.3+  1.4-)   011002 349  0.5+  0.3+    011026 349  0.5+  0.0
    010829 636  1.1-  0.4+    011006 704  1.4-  1.1-    011101 201  0.1-  0.4+
    010829 649  0.5-  0.5+    011006 704 (3.0-  2.1-)   011101 201  0.3-  0.3+
    010829 649  0.0   1.4+    011006 704 (2.0-  1.2-)   011101 201  0.1-  0.6+
    010829 649  0.2-  0.0     011006 704  1.5-  1.0-    011102 458  0.2-  0.3-
    010829 658  0.2+  0.2+    011006 704 (2.6-  0.3-)   011102 458 (2.3-  0.1+)
    010829 658  0.4+  0.3-    011009 629  0.8+  0.1-    011103 201  0.5-  0.1-
    010829 658  0.6+  0.3+    011009 629  0.2+  1.0+    011103 201  0.5-  0.1-
    010829 711  0.1+  0.1+    011009 629  0.6+  1.0+    011103 201  0.5-  0.1+
    010829 711  0.1+  0.7-    011009 629  0.2-  0.8+    011103 232  0.4+  0.1-
    010829 711  0.2+  0.0     011010 170  0.3+  0.1-    011103 232  1.0-  0.2-
    010830 599  0.2+  0.5-    011010 170  0.4+  0.5+    011103 232  0.4-  0.1-
    010830 599  0.0   0.6+    011010 170  0.1+  0.2+    011103 232  0.5-  0.4+
    010830 599  0.1+  0.4-    011010 170  0.3-  0.4+    011103 235 (2.6-  0.8-)
    010831 402  0.5-  0.3+    011010 170  0.3+  0.3+    011104 704 (6.8+  2.1+)
    010831 402  0.4-  0.3+    011011 349  0.3+  0.4-    011104 704 (2.5+  1.7-)
    010831 402  0.5-  0.4+    011011 349  0.1-  0.5-    011104 704 (2.8+  1.1-)
    010904 644  0.7+  0.1+    011011 349  0.1+  0.0     011104 704 (2.6+  3.0-)
    010904 644  0.2+  0.6+    011011 107  0.4+  0.5+    011104 349  0.3+  0.5-
    010904 644  0.3+  0.2+    011011 107  0.5+  0.2-    011104 349  0.2+  0.1+
    010908 170 (0.1+  3.7+)   011011 170  0.2+  0.3-    011104 349  0.2+  0.3-
    010908 170  0.6-  1.2+    011011 170  0.2-  0.0     011104 349  0.3+  0.2-
    010908 170  1.4-  0.1-    011011 170  0.2-  0.5+    011104 504  0.2-  0.1+
    010908 170  0.0   0.6-    011012 340  1.5-  0.6-    011104 504  0.1+  0.1-
    010911 170  0.0   0.4-    011012 340  1.0-  0.1-    011104 504  0.1-  0.4+
    010911 170  0.5+  0.3-    011012 340  0.6-  0.5-    011104 504  0.1+  0.0
    010911 170  1.0+  1.8-    011012 340  0.5-  0.7-    011104 504  0.2-  0.5-
    010911 170  1.0+  0.5-    011012 360  0.5+  0.6+    011104 504  0.2+  0.6-
    010911 170  0.4-  0.4+    011012 360  0.3+  0.4+    011104 504  0.4+  0.1-
    010911 355  0.6-  0.1-    011012 349  0.2+  0.3-    011104 504  0.0   0.1+
    010911 355  0.1-  0.5-    011012 349  0.4+  0.2-    011104 504  0.2+  0.2-
    010911 355  0.2-  0.3+    011012 349  0.3+  0.5-    011106 340  0.2-  0.1+
    010916 170  0.8+  0.1-    011012 349  0.4+  0.1-    011106 340  0.3-  0.0
    010916 170  1.2+  1.6+    011012 201  0.6+  0.7+    011106 340  0.6+  0.0
    010916 342  0.3+  0.5+    011012 201  0.7+  0.7+    011106 458 (1.5-  2.3-)
    010916 342  0.6+  0.2+    011012 201  0.6+  0.8+    011106 458  2.0-  0.7-
    010918 921  0.7+  1.7-    011013 349  0.4-  0.3+    011110 118  0.1-  0.0
    010918 921 (0.2-  2.6-)   011013 349  0.5-  0.4+    011110 118  0.2+  0.1-
    010918 921  0.7+  1.4-    011013 349  0.4-  0.1+    011110 118  0.2-  0.4-
    010918 349  0.2-  0.9+    011013 355  0.1+  0.0     011110 349  0.1+  0.1+
    010918 360  0.4+  0.1-    011013 355  0.2+  0.5-    011110 349  0.0   0.4+
    010918 360  0.3+  0.2-    011013 355  0.1-  0.3-    011111 349  0.1-  0.2+
    010918 349  0.6+  0.6+    011013 215  0.0   0.2-    011111 349  0.1+  0.3-
    010918 349  1.9+  1.1-    011013 215  0.0   0.0     011111 349  0.1+  0.2-
    010919 699  1.6-  0.9-    011013 215  0.1+  0.1-    011111 349  0.3+  0.0
    010919 699  0.2-  0.1+    011013 215  0.0   0.0     011111 046  0.4-  0.5-
    010919 699  0.3-  0.1-    011013 215  0.0   0.0     011111 046  0.4-  0.6-
    010919 699  1.3-  0.4-    011013 215  0.0   0.0     011111 046  0.4-  0.5-
    010920 704  1.8-  0.9-    011013 941  0.4-  1.2+    011111 046  0.4-  0.6-
    010920 704  1.0-  0.8-    011013 941  0.7-  1.4+    011114 235  0.9-  1.0-
    010920 704  1.8-  0.7-    011013 941  0.6-  1.3+    011116 372  0.2-  0.5+
    010920 704 (2.4-  1.7-)   011013 941 (0.9-  2.3+)   011119 349  1.2+  0.0
    010920 704 (2.3-  0.7-)   011014 340  1.1+  0.1-    011119 349  0.5+  0.2+
    010921 170  0.6-  0.6-    011014 340  0.6+  0.5-    011119 349  0.6+  0.4+
    010921 170  0.7-  0.7-    011014 340  0.5-  0.1+    011119 349  0.8+  0.3+
    010921 170  0.0   0.9-    011014 340  1.5+  0.9-    011120 170 (3.0-  9.8+)
    010921 170  0.1-  0.4-    011014 402  0.4+  0.3+    011120 170 (4.3-  9.1+)
    010921 372  0.3+  0.8+    011014 402  0.3+  0.4+    011120 170 (4.8-  9.0+)
    010921 372  0.7+  1.0+    011014 402  0.4+  0.2+    011120 235  1.3-  0.1+
    010922 349  0.0   0.0     011014 235 (1.1-  5.2+)   011121 360  0.3-  0.3-
    010922 349  0.2-  0.0     011014 458  1.7+  0.1+    011121 360  0.4-  0.3-
    010922 349  0.2-  0.4-    011014 458  0.5+  0.0     011121 903  0.6-  0.3-
    010922 349  0.6-  0.6-    011014 458 (2.9-  2.2-)   011121 903  0.3+  0.3-
    010923 642  0.8+  0.6+    011015 629  0.2+  0.5+    011121 903  1.2+  0.1-
    010923 642 (2.3+  0.9+)   011015 629  0.2-  0.1+    011123 903  0.8+  0.0
    010923 642  0.6-  0.0     011015 629  0.3+  0.3+    011123 903  1.2+  0.6+
    010923 642  0.5-  0.3+    011015 629  0.5+  1.0+    011123 903  0.5+  0.3+
    010923 642  0.6+  0.1-    011015 170  0.0   0.4+    011123 232  0.2-  0.6-
    010923 903  0.6-  0.8-    011015 170  0.1+  0.2-    011123 232  0.9-  0.9-
    010923 903  0.4+  0.7-    011015 170  0.0   0.2+    011124 235  1.1+  1.1-
    010923 903  0.6-  0.3-    011017 750  0.1+  0.4+    011124 349  0.7+  0.6+
    010923 349  0.6+  0.6+    011017 750  0.2-  0.2+    011124 349  0.0   0.1+
    010923 349  0.9+  0.0     011017 750  0.2+  0.4+    011124 349  0.3-  0.3+
    010923 349  0.2+  0.1+    011017 629  1.2-  0.0     011124 118  0.1+  0.1-
    010923 349  0.8+  0.3+    011017 629  1.6-  0.2+    011124 118  0.0   0.4+
    010923 402  0.3+  0.1+    011017 629  1.0-  0.5+    011124 118  0.1+  0.0
    010923 402  0.6+  0.1-    011017 629  1.4-  1.1+    011126 118  0.2+  0.4-
    010923 402  0.6+  0.3+    011017 629  0.8-  1.6+    011126 118  0.3-  0.3+
    010923 213  1.1-  0.1-    011018 340  0.5+  0.2-    011126 349  0.5-  0.3-
    010924 213  0.4+  1.1+    011018 340  0.0   0.8-    011126 349  0.4-  0.3-
    010924 213  1.0-  0.3+    011018 340  0.6-  0.1+    011126 349  0.4-  0.1-
    010924 213  0.4+  0.5+    011018 352  0.2+  1.0-    011128 903  0.1+  0.9-
    010924 213  0.7-  0.5-    011018 352  0.8+  1.7-    011128 903  0.2-  0.6-
    010924 213  0.2-  0.2-    011018 352  0.7+  1.9-    011128 903  0.3+  0.3-
    010924 170  0.3-  0.4-    011019 349  0.1+  0.3-    011130 372  0.2+  0.8+
    010924 170  0.4-  0.4-    011019 349  0.1+  0.3-    011130 232  0.4-  0.6+
    010924 349  0.3-  0.1+    011019 349  0.2-  0.4-    011130 232  0.8-  0.4-
    010924 349  0.1-  0.2+    011019 349  0.3+  0.4-    011202 903  0.6+  0.9+
    010924 349  0.6+  0.3+    011019 349  0.1-  0.5-    011202 903  0.2-  0.9+
    010924 349  0.5+  0.2+    011023 340  0.2+  0.4-    011202 903  0.2-  1.3+
    010925 921  0.5+  0.4+    011023 340  0.4+  0.2-    011202 118  0.5+  1.1+
    010925 921  0.7-  0.3-    011023 340  0.2+  0.3-    011202 118  0.3+  0.9+
    010925 921  0.3-  0.2-    011023 349  0.0   0.0     011202 118  0.4+  1.2+
    010925 704 (2.4-  0.9+)   011023 349  0.1+  0.3+    011212 235 (1.8- 11.7-)
    
